Weather Roundup
Issued by NWS Corpus Christi, TX

Home | Current Version | Previous Version | Text Only | Print | Product List | Glossary On
Versions: 1 2 3 4 5 6 7 8 9 10 11 12 13 14 15 16 17 18 19 20 21 22 23 24 25 26 27 28 29 30 31 32 33 34 35 36 37 38 39 40 41 42 43 44 45 46 47 48 49 50
000
ASUS44 KCRP 311810
HRRCRP

SOUTH TEXAS REGIONAL WEATHER ROUNDUP
NATIONAL WEATHER SERVICE CORPUS CHRISTI TX
100 PM CDT MON AUG 31 2015


TXZ229>244-311900-
...CORPUS CHRISTI AREA OBSERVATIONS...

CITY           SKY/WX    TMP DP  RH WIND       PRES   REMARKS
CORPUS CHRISTI PTSUNNY   79  70  73 NW20G29   29.99R THUNDER
NAS CORPUS CHR PTSUNNY   85  76  74 SE16G24   29.99F HX  94
ROCKPORT       PTSUNNY   92  73  53 SE13      30.00S THUNDER HX 100
KINGSVILLE NAS PTSUNNY   92  77  61 SE16G29   29.97F HX 105
ALICE          MOSUNNY   94  70  45 S5        29.97F HX 100
FALFURRIAS     MOSUNNY   94  71  46 E7G16     29.96F HX 100
$$

...VICTORIA AREA OBSERVATIONS...

CITY           SKY/WX    TMP DP  RH WIND       PRES   REMARKS
VICTORIA       PTSUNNY   80  75  84 SE5       30.03S
BEEVILLE       PTSUNNY   91  72  54 CALM      29.99F HX  98
PLEASANTON     SUNNY     91  66  42 NE7       30.01F HX  93
SAN ANTONIO    PTSUNNY   90  67  46 S9        30.03F HX  93
$$

...LAREDO AREA OBSERVATIONS...

CITY           SKY/WX    TMP DP  RH WIND       PRES   REMARKS
LAREDO         MOSUNNY   92  71  50 CALM      29.98F HX  98
COTULLA        MOSUNNY   93  70  46 SE8       29.98F HX  99
DEL RIO        SUNNY     92  67  43 S10       29.98F HX  95
MCALLEN        MOSUNNY   93  72  50 S12G20    29.96F HX 101
HEBBRONVILLE   NOT AVBL
$$

...OTHER TEXAS OBSERVATIONS...

CITY           SKY/WX    TMP DP  RH WIND       PRES   REMARKS
BROWNSVILLE    HVY RAIN  83  76  79 E15       29.96F HX  91
HOUSTON        CLOUDY    84  72  67 E10       30.05S
COL. STATION   MOSUNNY   89  68  49 S9        30.04S HX  93
AUSTIN         MOSUNNY   90  66  45 VRB3      30.01F HX  92
WACO           SUNNY     89  67  47 S6        30.03F HX  92
FORT WORTH     MOSUNNY   91  63  39 E9        30.02F HX  92
WICHITA FALLS  SUNNY     92  62  36 S14       30.00F HX  92
LUBBOCK        SUNNY     88  47  24 S16       30.08F
EL PASO        SUNNY     87  46  24 S7        30.09F
$$

...MARINE OBSERVATIONS...

STATION/POSITION TIME  SKY/WX   TEMP    WIND        PRES    VSBY  WAVE   SWELL
                                AIR SEA DIR/SP/G                  HT/PER HT/PER
                 (UTC)          (F)     (DEG/KT/KT) (MB)    (MI)  (FT/S) (FT/S)
PORT ARANSAS     1800            84 86  140/ 16/ 23 1016.9F
BUOY 90 E PORT A 1750            84 85  340/  2/  4 1016.8R         1/ 4
BUOY 45 SE BAFFI 1750            81 85  120/ 16/ 19 1015.8R         2/ 5
BUOY 200 E PT IS 1750            86 85  130/  8/ 10 1016.6F         2/ 6   2/ 6
BUOY 15 E GALVES 1750            85 85   60/  6/  8 1017.1S         1/ 6
$$



USA.gov is the U.S. government's official web portal to all federal, state and local government web resources and services.